Location: Glencliff
(36.1226°N, 86.7183°W)
Time: 05:53:09
(UTC+00:00)

Cosmos 1980 Rocket - Pass Details

Date: 25 August 2019
Orbit: 829 x 850 km, 71.0° (Epoch: 19 September)

Event Time Altitude Azimuth Distance (km) Brightness Sun altitude
Rises 03:02:50 0° 343° (NNW) 3,392 6.2 -28.8°
Reaches altitude 10° 03:05:20 10° 348° (NNW) 2,457 5.2 -29.2°
Enters shadow 03:09:43 46° 25° (NNE) 1,118 2.8 -29.8°
